Probability
20 21 20 18 16 14 14 14 12 12 13 13 12 11 9 7 8 10 10 10 10 11 11 10 9 7 5 4 3 4 5 6 6 5 5 6 7 6 5 4 3 1 0
19 20 18 16 16 15 14 14 12 13 13 12 11 9 8 8 9 10 10 10 9 10 10 9 7 6 5 4 3 3 4 4 5 5 6 7 6 4 4 4 3 2 1
17 17 16 15 15 16 15 14 12 12 11 9 9 8 7 9 11 11 10 10 9 9 9 8 7 5 5 5 4 3 3 3 4 5 6 7 5 3 2 2 3 4 2
14 14 14 13 13 15 16 14 11 9 7 6 7 7 8 10 11 12 12 11 10 9 8 8 6 4 4 4 3 3 3 3 3 4 5 6 4 3 1 1 2 3 3
10 10 11 12 12 13 14 13 10 6 4 4 5 7 8 9 9 10 11 12 11 10 8 7 5 3 3 3 2 2 3 3 4 4 5 4 3 3 2 1 1 3 4
10 9 10 12 11 10 11 11 9 6 4 3 4 6 7 6 4 4 7 10 11 10 8 6 4 3 3 2 1 1 1 2 4 4 3 2 3 3 2 1 1 2 4
11 11 11 12 11 10 8 8 7 6 5 4 4 6 8 5 1 0 3 7 9 10 9 6 4 3 3 2 1 1 1 1 1 2 2 1 2 2 2 2 1 1 2
11 12 12 13 13 11 9 9 9 8 7 6 6 8 9 6 2 0 2 5 7 8 8 6 4 3 3 2 2 2 1 0 0 0 0 0 1 1 1 1 1 1 1
13 13 13 13 14 13 12 12 13 13 11 8 8 11 13 9 3 0 2 5 6 7 7 6 4 3 3 1 1 2 1 0 0 0 0 0 0 0 0 0 0 0 1
13 13 12 12 13 13 13 14 16 16 13 11 12 14 14 11 4 0 2 5 6 5 6 5 3 2 2 1 0 0 0 0 0 0 0 0 0 0 0 0 0 0 0
12 13 13 12 12 12 12 14 16 15 15 14 14 14 14 10 3 0 2 4 5 4 5 4 3 1 1 0 0 0 0 0 0 0 0 0 0 0 0 0 0 0 0
11 12 12 12 11 10 11 13 14 13 14 15 15 14 13 9 3 0 1 2 3 3 4 3 2 1 0 0 0 0 0 0 0 0 0 0 0 0 1 1 0 0 0
10 10 10 10 10 9 10 11 11 11 11 14 15 14 13 10 5 1 0 0 1 2 3 2 1 0 0 0 0 0 0 0 0 0 0 0 0 1 2 2 1 1 0
8 7 7 8 9 9 9 9 10 9 10 13 14 13 11 9 6 3 1 0 0 1 2 1 0 0 0 0 0 0 0 0 0 0 0 0 0 1 2 2 2 2 1
7 6 6 6 7 8 7 6 7 7 8 10 11 11 10 8 5 3 1 0 0 1 2 1 0 0 0 0 0 0 0 0 0 0 0 0 0 1 1 1 2 2 2
6 5 4 4 4 4 4 4 5 5 4 5 6 7 7 5 3 1 1 0 0 0 1 2 1 0 0 0 0 0 0 0 0 0 0 0 0 0 0 0 1 1 1
5 4 3 3 2 1 1 2 4 4 3 2 2 2 3 2 1 0 0 0 0 0 1 2 2 1 0 0 0 0 0 0 0 0 0 0 0 0 0 0 0 0 0
4 3 3 2 1 0 0 2 5 6 5 3 2 1 0 0 0 0 0 0 0 0 0 1 2 2 1 0 0 0 0 0 0 0 0 0 0 0 0 0 0 0 0
3 3 2 1 0 0 0 1 4 6 6 6 4 2 0 0 0 0 0 0 0 0 0 0 1 2 1 1 1 0 0 0 0 0 0 0 0 0 0 0 0 0 0
2 2 1 1 0 0 0 1 3 5 6 6 6 4 2 1 0 0 0 0 0 0 0 0 1 1 1 0 0 0 0 0 0 0 0 0 0 0 0 0 0 0 0
1 0 0 0 0 0 0 1 3 4 5 5 6 5 3 2 1 0 0 0 0 0 0 0 0 0 0 0 0 0 0 0 0 0 0 0 0 0 0 0 0 0 0
0 0 0 0 0 0 0 1 3 5 4 4 5 4 2 2 3 1 0 1 2 1 0 0 0 0 0 0 0 0 0 0 0 0 0 0 0 0 0 0 0 0 0
0 0 0 0 0 0 1 2 4 5 5 4 4 3 2 2 3 2 2 2 3 2 1 0 0 0 0 0 0 0 0 0 0 0 0 0 0 0 0 0 0 0 0
0 0 0 0 0 0 1 3 3 4 4 4 4 3 2 2 3 3 3 4 3 2 1 0 0 0 0 0 0 0 0 0 0 0 0 0 0 0 0 0 0 0 0
0 0 0 1 1 1 2 3 3 3 3 3 4 3 3 2 2 3 4 4 3 1 0 0 0 0 0 0 0 0 0 0 0 0 0 0 0 0 0 0 0 0 0
0 0 1 2 2 1 2 3 3 3 3 3 3 3 2 1 1 3 4 4 2 0 0 0 0 0 0 0 0 0 0 0 0 0 0 0 0 0 0 0 0 0 0
Wind_Speed
5 4 4 4 4 4 3 3 3 2 2 3 3 3 4 4 4 4 4 4 4 4 4 4 4 3 3 3 3 3 3 3 3 2 2 2 2 2 2 3 3 3 4
4 5 5 4 4 4 3 3 3 3 3 3 3 3 3 4 4 4 4 4 4 4 4 4 4 3 3 4 3 3 3 3 4 3 2 3 3 3 2 3 3 2 2
3 4 4 4 4 4 3 3 3 3 3 3 2 3 3 3 4 4 4 4 4 4 4 4 4 4 4 3 3 3 3 3 3 3 3 2 2 3 2 2 2 1 2
2 3 4 4 4 3 3 3 3 3 3 3 2 3 3 3 3 3 3 3 3 3 3 3 3 3 3 3 3 3 3 2 3 3 3 3 2 3 2 2 2 2 2
2 2 2 3 3 3 3 3 3 3 3 3 2 2 2 2 2 2 3 3 3 3 2 2 1 1 2 0 1 2 3 3 3 3 3 3 2 2 2 2 2 2 2
3 2 2 2 3 3 3 3 3 2 2 2 2 2 2 1 1 1 2 2 2 2 2 2 2 4 4 3 2 2 1 3 3 3 3 2 2 2 2 3 3 3 2
3 3 2 2 2 2 3 3 3 2 2 2 2 2 2 2 3 2 1 2 2 2 1 1 1 2 3 3 3 3 0 1 1 3 2 2 2 2 2 4 3 3 3
3 3 2 2 2 2 3 3 3 2 2 2 2 2 2 2 3 3 1 2 2 2 2 2 1 1 1 0 1 2 2 2 2 3 3 3 2 2 3 3 3 3 3
4 3 3 2 2 3 3 3 3 3 2 3 2 2 2 3 4 3 2 3 2 3 2 2 2 2 3 1 2 2 2 2 2 2 0 1 1 2 3 4 4 4 3
3 3 3 3 3 3 3 3 3 3 3 2 2 3 3 3 4 4 3 3 3 3 3 3 2 1 3 1 3 2 2 2 2 3 4 4 5 4 5 5 5 4 3
3 3 3 3 3 3 3 3 3 3 3 3 2 3 3 3 5 5 3 3 2 3 3 2 3 4 3 2 3 2 1 2 3 3 4 4 4 3 4 4 4 4 4
3 3 2 3 3 3 3 4 4 5 5 5 4 4 3 4 4 5 6 4 2 2 2 2 3 6 4 2 2 0 1 3 3 3 2 2 2 2 2 2 2 3 3
2 2 2 3 2 3 4 4 5 5 5 4 4 4 3 3 5 7 7 6 3 2 1 3 4 6 5 4 4 3 4 3 2 2 2 1 1 1 2 2 3 3 4
2 2 2 2 2 3 3 3 3 3 4 4 4 3 3 4 3 4 5 6 6 4 3 5 6 5 4 2 3 4 3 2 2 2 2 1 1 1 2 3 3 3 4
2 2 2 2 2 3 2 1 3 2 2 3 3 3 3 3 3 2 3 2 2 2 2 3 3 3 3 3 3 2 2 3 3 2 2 2 2 2 2 2 3 3 3
2 2 2 3 3 3 3 2 1 1 2 1 1 2 2 3 5 5 4 3 3 3 3 3 3 2 2 2 2 2 2 2 2 2 2 2 2 2 2 2 3 3 3
3 2 2 3 3 3 3 3 3 3 3 3 4 3 3 3 5 6 6 5 5 5 4 3 2 2 2 2 2 2 2 2 2 2 2 3 3 3 2 2 3 3 3
3 3 3 3 3 3 3 3 3 3 4 4 5 7 6 6 6 6 7 6 4 5 4 3 2 2 2 2 2 2 2 2 2 2 3 3 3 3 3 3 3 4 4
3 3 3 3 3 3 3 3 4 4 4 4 4 5 7 7 8 7 8 5 4 4 4 3 3 2 2 2 2 1 2 1 2 2 2 3 3 3 3 3 3 3 5
3 2 3 3 3 3 4 4 4 4 4 4 3 3 5 6 5 6 6 4 4 3 3 3 2 2 2 2 2 2 2 2 2 2 2 2 3 3 3 5 4 4 4
2 2 4 4 3 3 3 3 4 4 4 3 3 3 4 5 4 5 4 4 3 3 2 2 2 2 2 2 2 2 3 2 2 2 3 3 3 4 4 4 5 5 5
2 2 3 3 3 3 3 3 3 4 4 4 3 4 7 5 3 3 3 3 3 3 2 2 2 2 2 2 2 2 2 3 2 3 3 4 4 4 5 5 4 4 5
2 2 2 2 2 2 3 3 3 3 2 3 3 3 4 4 3 4 4 3 3 2 2 2 3 2 2 2 2 3 3 3 3 3 4 5 5 5 5 5 5 5 5
2 2 2 2 2 2 3 2 2 2 2 2 2 3 3 3 3 3 3 3 3 3 2 2 3 3 3 3 3 3 1 2 4 4 5 6 6 5 5 5 5 5 5
2 3 2 2 2 2 2 2 2 1 1 2 2 2 2 3 3 3 3 3 3 3 3 3 3 3 4 4 4 2 1 1 2 4 5 5 5 5 5 6 5 5 5
2 2 2 2 2 2 2 1 1 1 1 1 1 2 2 2 2 2 2 3 3 3 3 3 4 4 4 4 3 1 2 1 2 3 5 5 5 4 5 5 6 5 5
Wind_Direction
195 195 201 205 208 213 217 220 231 242 240 229 232 233 221 220 219 224 236 224 225 224 226 218 225 247 235 232 232 236 236 236 239 220 189 161 178 218 171 192 188 197 161
197 197 202 208 210 215 215 221 226 230 235 227 226 235 231 224 221 223 233 228 226 225 226 222 220 221 225 240 234 234 232 231 229 212 193 181 187 200 188 204 202 196 188
197 199 200 209 211 215 221 226 226 226 234 230 228 236 235 230 224 221 226 228 228 228 224 222 221 221 224 224 231 230 224 215 215 213 206 182 193 187 184 203 209 203 226
193 202 204 207 211 214 216 219 220 223 227 224 224 231 233 227 224 223 217 217 223 223 221 227 231 223 217 210 212 221 226 224 208 215 204 192 187 179 203 205 204 206 238
196 198 210 210 211 214 215 214 215 219 219 216 219 220 223 216 224 231 215 206 208 208 203 210 208 137 58 344 251 211 213 223 212 207 206 199 189 182 211 223 221 226 228
212 209 210 212 211 210 209 208 209 210 215 212 211 202 203 213 71 3 260 197 197 196 188 196 184 167 138 120 61 35 331 238 224 220 220 211 210 220 219 233 230 239 244
210 206 198 210 214 218 210 202 205 203 203 208 206 193 176 136 110 129 256 207 188 180 168 199 227 140 172 174 156 161 180 338 300 265 244 246 230 233 235 237 236 258 276
202 201 204 217 219 214 212 207 207 206 209 207 205 190 168 131 116 130 173 191 169 161 168 177 174 132 93 32 191 186 201 202 215 223 240 253 252 252 246 252 247 238 245
202 200 201 209 217 217 211 208 208 207 207 204 188 176 167 143 129 139 189 188 167 166 171 160 171 174 91 9 205 198 197 185 129 112 38 285 347 271 255 242 236 240 248
210 206 209 210 211 217 214 211 206 206 201 195 176 175 170 158 145 155 209 199 176 174 165 159 133 141 126 224 220 199 198 203 195 178 191 205 213 211 222 244 255 256 262
220 217 209 204 208 208 207 205 202 198 188 186 179 175 176 171 157 164 199 216 190 183 174 177 144 138 153 211 253 235 233 261 236 221 208 202 203 205 210 218 248 272 277
220 217 204 200 206 186 193 198 198 195 188 186 184 186 177 173 164 170 180 207 258 199 195 179 130 145 164 200 228 211 241 250 237 230 219 203 199 209 222 237 242 264 276
211 212 200 193 200 195 198 200 200 202 202 194 189 181 171 168 160 170 181 187 206 213 153 95 122 159 178 190 197 218 231 234 237 236 235 229 218 208 216 216 220 228 239
211 212 194 184 189 185 209 203 203 204 207 200 195 184 171 171 167 171 179 180 186 192 177 144 161 177 200 197 183 198 220 239 257 255 256 245 231 223 233 230 230 230 236
213 214 199 185 183 186 195 222 224 209 226 230 209 194 186 176 157 158 191 186 194 167 175 174 182 174 186 190 197 202 208 207 216 229 236 240 233 234 246 252 252 248 253
208 207 202 194 188 193 184 182 116 215 133 174 261 243 175 135 141 151 161 163 162 161 201 198 199 204 211 207 209 206 212 217 223 226 234 245 250 248 246 250 254 256 261
227 224 221 207 195 199 199 203 194 186 182 197 204 197 195 155 159 165 164 162 171 179 206 210 207 209 220 223 221 221 219 207 231 241 247 250 254 257 258 258 258 262 266
232 210 223 221 214 211 211 214 213 203 189 193 196 193 187 178 173 169 159 162 178 196 216 220 218 218 220 225 225 223 220 210 221 232 240 251 255 260 266 269 270 278 278
241 220 216 224 225 221 219 219 219 212 206 201 183 168 181 176 172 173 176 204 203 204 209 215 222 223 225 224 227 223 226 230 245 252 247 262 264 268 274 275 270 268 274
239 226 230 228 224 223 221 223 223 214 208 204 202 177 161 174 177 174 192 210 216 210 217 221 221 224 228 234 224 225 226 227 238 251 260 264 266 268 268 273 277 270 267
249 211 215 229 228 230 233 231 229 217 209 205 205 169 175 195 192 184 187 196 203 206 212 230 231 225 228 237 240 236 239 243 250 265 269 267 268 270 272 270 270 273 275
262 250 239 232 227 233 242 239 235 217 206 202 186 162 171 203 196 186 190 195 199 205 209 223 228 224 233 244 247 248 249 259 265 268 270 270 267 268 272 274 276 279 281
263 250 248 239 233 226 238 240 241 231 214 197 185 176 181 191 187 188 192 192 195 199 203 212 230 227 218 237 252 254 256 262 270 275 274 272 272 273 273 274 274 275 276
275 266 250 236 234 233 233 229 227 225 213 201 193 189 182 182 188 191 200 196 192 197 201 207 218 226 231 241 249 248 253 281 275 260 266 275 278 280 278 276 274 277 276
278 281 269 241 232 229 229 228 223 228 233 218 197 195 186 178 183 191 195 194 193 196 200 208 218 221 225 231 246 260 88 100 275 283 263 263 270 277 282 282 280 277 276
272 279 284 273 250 225 214 221 228 231 237 229 212 204 200 198 202 210 203 199 204 201 208 212 216 221 228 230 231 207 132 185 240 270 268 260 263 267 275 276 281 279 277